Location: McFarlands Corners
(41.4117°N, 81.3382°W)
Time: 21:10:23
(UTC+00:00)

SR - Pass Details

Date: 18 February 2026
Orbit: 572 x 848 km, 66.7° (Epoch: 8 March)

Event Time Altitude Azimuth Distance (km) Brightness Sun altitude
Rises 11:08:47 0° 255° (WSW) 2,782 - -13.3°
Reaches altitude 10° 11:11:43 10° 277° (W) 1,908 - -12.7°
Exits shadow 11:13:31 15° 302° (WNW) 1,610 ? -12.4°
Maximum altitude 11:14:24 16° 317° (NW) 1,578 ? -12.2°
Drops below altitude 10° 11:17:11 10° 356° (N) 1,979 ? -11.7°
Sets 11:20:19 0° 18° (NNE) 2,940 ? -11.1°
